Location: *
(17.3280°S, 114.7300°W)
Time: 07:30:38
(UTC+00:00)

Centaur AC-64 - Pass Details

Date: 05 August 2020
Orbit: 298 x 25726 km, 23.1° (Epoch: 20 September)

Event Time Altitude Azimuth Distance (km) Brightness Sun altitude
Exits shadow 12:32:29 31° 275° (W) 2,358 4.9 -21.7°
Maximum altitude 12:36:18 71° 198° (SSW) 904 3.2 -20.8°
Drops below altitude 10° 12:39:29 10° 112° (ESE) 1,680 5.6 -20.1°
Sets 12:40:45 0° 109° (ESE) 2,293 6.5 -19.8°
